Terminal Aerodrome Forecast
Issued by NWS

Home | Current Version | Previous Version | Text Only | Print | Product List | Glossary On
Versions: 1 2 3 4 5 6 7 8 9 10 11 12 13 14 15 16 17 18 19 20 21 22 23 24 25 26 27 28 29 30 31 32 33 34 35
000
FTUS45 KPSR 031508 AAA
TAFPHX
TAF AMD
KPHX 031508Z 0315/0412 11007KT P6SM SCT110 SCT200
     FM032200 23007KT P6SM FEW100 SCT150 BKN250
     FM040100 21009KT P6SM VCTS SCT100CB BKN150 BKN200
     FM040400 14008KT P6SM VCSH BKN100 BKN250=

USA.gov is the U.S. government's official web portal to all federal, state and local government web resources and services.